[[{"header":{"parameterUnit":"m.s-1","parameterCategory":1,"la1":30.2991,"la2":30.254,"lo1":-89.0895,"lo2":-89.0444,"dy":0.0017,"dx":0.0017,"nx":28,"ny":28,"refTime":"2024-02-13T03:00:00:Z","depth":0,"parameterNumber":2,"parameterNumberName":"U-component_of_WINDS"},"data":[0,0,0,0,0,0,0,0,0,0,0,0,0,0,0,0,0,0,0,0,0,0,0,0,0,0,0,0,0,0,0,0,0,0,0,0,0,0,0,0,0,0,0,0,0,0,0,0,0,0,0,0,0,0,0,0,0,0,1.4692,1.4692,0,1.4704,1.4704,1.4704,1.47,1.47,1.47,1.4699,1.471,1.471,1.4711,0,0,0,0,0,0,0,0,0,0,0,0,0,1.4666,1.4667,1.4692,1.4692,1.4693,1.4704,1.4704,1.4704,1.47,1.47,1.47,1.4699,1.471,1.471,1.4711,0,0,0,0,0,0,0,0,0,0,0,0,0,1.4678,1.4667,1.4692,1.4692,1.4692,1.4704,1.4704,1.4704,1.47,1.47,1.4699,1.4699,1.4709,1.471,1.4711,1.4723,0,0,1.4713,1.4714,0,0,0,0,0,0,0,0,1.4677,1.4678,1.4692,1.4692,1.4692,1.47,1.4699,1.4711,1.47,1.4697,1.4699,1.4699,1.4707,1.4708,1.4711,1.4724,1.4724,1.4713,1.4714,1.4714,1.4714,0,0,0,0,0,0,0,1.4676,1.4678,1.4697,1.4692,1.4692,1.4691,1.4692,1.4701,1.4704,1.4697,1.4697,1.4699,1.4707,1.471,1.4711,1.4725,1.4713,1.4714,1.4715,1.4715,1.4751,1.4751,0,0,0,0,0,0,1.4675,1.4677,1.4696,1.4697,1.4683,1.4692,1.4693,1.4698,1.4704,1.4704,1.4699,1.4698,1.4709,1.471,1.4711,1.4727,1.4714,1.4715,1.4715,1.475,1.4751,1.4751,0,0,0,0,0,0,1.4675,1.4677,1.4696,1.4687,1.469,1.4693,1.4698,1.4698,1.4702,1.4705,1.4705,1.4702,1.4709,1.471,1.4721,1.4728,1.4715,1.4716,1.475,1.475,1.4751,1.4759,0,0,0,0,0,0,1.4674,1.4677,1.4681,1.4687,1.469,1.4705,1.4699,1.4699,1.4703,1.4703,1.4708,1.4708,1.4708,1.472,1.4722,1.4729,1.4717,1.4749,1.475,1.4751,1.4758,1.476,1.4762,0,0,0,0,0,1.4673,1.4682,1.4682,1.4684,1.4696,1.4706,1.4707,1.4708,1.4704,1.4709,1.4711,1.4708,1.4727,1.4721,1.4723,1.473,1.4749,1.475,1.4751,1.4757,1.476,1.4762,0,0,0,0,0,0,1.4676,1.4683,1.4682,1.4694,1.4699,1.4705,1.4711,1.471,1.4716,1.4715,1.4715,1.4717,1.4728,1.473,1.4724,1.4744,1.4737,1.4739,1.4742,1.4744,1.4745,1.4744,1.4717,0,0,0,0,0,1.4678,1.4686,1.4691,1.4701,1.4704,1.4707,1.4711,1.4712,1.4717,1.4719,1.4723,1.4728,1.4735,1.474,1.4746,1.4759,1.4761,1.4765,1.4767,1.4768,1.4769,1.4778,1.478,1.4755,1.4755,1.4755,0,0,1.4682,1.4687,1.4691,1.4702,1.4706,1.4714,1.4709,1.4717,1.4723,1.472,1.4731,1.4734,1.474,1.4752,1.4758,1.4754,1.4777,1.477,1.4771,1.4771,1.4779,1.4781,1.4784,1.4756,1.4756,1.4756,0,0,1.4693,1.4698,1.4707,1.4712,1.4719,1.4722,1.4724,1.4731,1.4733,1.4744,1.4742,1.475,1.4762,1.4767,1.4771,1.4787,1.4785,1.479,1.4798,1.4806,1.4808,1.481,1.4816,1.4818,1.4791,1.4791,1.4791,0,1.4697,1.4709,1.4712,1.4721,1.4726,1.4725,1.4735,1.474,1.4748,1.4752,1.4749,1.4765,1.4769,1.4783,1.4788,1.4791,1.4794,1.4788,1.4808,1.4809,1.4811,1.4817,1.482,1.4791,1.4791,1.4791,1.4791,0,1.4714,1.4723,1.473,1.474,1.4746,1.4755,1.4759,1.4765,1.4765,1.4768,1.4781,1.4786,1.4794,1.4798,1.4798,1.4813,1.4811,1.4808,1.4801,1.4814,1.482,1.4822,1.4792,1.4792,1.4792,1.4792,0,0,1.4725,1.4738,1.4741,1.4746,1.4755,1.4762,1.4772,1.4782,1.4787,1.4794,1.4803,1.4815,1.4813,1.4817,1.4818,1.4825,1.4839,1.4822,1.4822,1.4825,1.4857,1.4859,1.4862,1.4839,1.4839,1.4839,1.4857,0,1.4738,1.4756,1.4759,1.4775,1.4784,1.4785,1.4794,1.48,1.4804,1.4812,1.4817,1.4825,1.4821,1.4825,1.4832,1.4836,1.4846,1.4835,1.4847,1.4847,1.4844,1.4865,1.4866,1.4882,1.4859,1.4859,1.486,0,1.4754,1.4763,1.4779,1.479,1.4793,1.4801,1.4811,1.4819,1.4828,1.483,1.4837,1.4838,1.4849,1.4843,1.4859,1.4851,1.4857,1.486,1.486,1.4861,1.4853,1.4865,1.4887,1.4889,1.4863,1.4863,1.4862,0,1.4761,1.4777,1.4789,1.4794,1.4806,1.4812,1.4817,1.4825,1.4831,1.484,1.4845,1.4854,1.486,1.4868,1.4871,1.4866,1.4887,1.4881,1.4889,1.4889,1.4893,1.4892,1.4915,1.4897,1.4897,1.4897,1.4897,0,1.4774,1.4784,1.4793,1.4801,1.4813,1.4818,1.4829,1.4835,1.4842,1.4851,1.4853,1.4861,1.4866,1.4875,1.4878,1.4892,1.4894,1.4896,1.4897,1.4896,1.4896,1.4899,1.4897,1.4897,1.4897,1.4897,1.4897,0,1.4783,1.4789,1.4803,1.4814,1.4817,1.4826,1.4835,1.4843,1.4848,1.486,1.4863,1.487,1.4882,1.4887,1.49,1.4902,1.4917,1.4917,1.4915,1.4915,1.4923,1.4922,1.4948,1.4952,1.4932,1.4932,1.4932,0,1.479,1.4799,1.4811,1.4818,1.4824,1.4834,1.4841,1.4847,1.4854,1.4866,1.4872,1.4884,1.4894,1.4912,1.4918,1.4929,1.4929,1.4938,1.4931,1.493,1.493,1.4929,1.493,1.4939,1.4939,1.4939,1.4939,0,1.4803,1.4807,1.4817,1.4829,1.4838,1.4847,1.4856,1.4862,1.4869,1.4877,1.4889,1.4897,1.4912,1.4924,1.4936,1.4941,1.4942,1.4942,1.4944,1.4943,1.4941,1.4943,1.4918,1.4941,1.4941,1.494,1.494,1.494,1.4812,1.482,1.4831,1.4843,1.4851,1.486,1.4868,1.4875,1.4886,1.4899,1.4902,1.4915,1.4925,1.4942,1.4948,1.4958,1.4956,1.496,1.4961,1.4961,1.4962,1.494,1.4961,1.4961,1.4961,1.4961,1.4961,0,1.4825,1.4833,1.4844,1.4858,1.4867,1.4869,1.488,1.4887,1.4899,1.4909,1.4919,1.4934,1.4946,1.4955,1.4967,1.4974,1.4975,1.4977,1.4977,1.4978,1.4963,1.496,1.4977,1.4977,1.4977,1.4977,1.4977,1.4977,1.4833,1.4847,1.4852,1.4871,1.4879,1.4892,1.4898,1.4907,1.4916,1.4932,1.4943,1.4949,1.4959,1.4972,1.4984,1.4986,1.4991,1.4993,1.4995,1.4981,1.4979,1.4977,1.4974,1.4994,1.4994,1.5009,1.501,1.501]},{"header":{"parameterUnit":"m.s-1","parameterCategory":1,"la1":30.2991,"la2":30.254,"lo1":-89.0895,"lo2":-89.0444,"dy":0.0017,"dx":0.0017,"nx":28,"ny":28,"refTime":"2024-02-13T03:00:00:Z","depth":0,"parameterNumber":3,"parameterNumberName":"V-component_of_WINDS"},"data":[0,0,0,0,0,0,0,0,0,0,0,0,0,0,0,0,0,0,0,0,0,0,0,0,0,0,0,0,0,0,0,0,0,0,0,0,0,0,0,0,0,0,0,0,0,0,0,0,0,0,0,0,0,0,0,0,0,0,-5.33,-5.3302,0,-5.3411,-5.3412,-5.3414,-5.3388,-5.3386,-5.3384,-5.3382,-5.3491,-5.3495,-5.35,0,0,0,0,0,0,0,0,0,0,0,0,0,-5.3064,-5.3068,-5.33,-5.3302,-5.3303,-5.3411,-5.3412,-5.3414,-5.3388,-5.3386,-5.3383,-5.3381,-5.3489,-5.3495,-5.3501,0,0,0,0,0,0,0,0,0,0,0,0,0,-5.317,-5.307,-5.33,-5.3303,-5.3305,-5.3411,-5.3412,-5.3414,-5.3389,-5.3386,-5.3383,-5.338,-5.3487,-5.3494,-5.3501,-5.3609,0,0,-5.3524,-5.3527,0,0,0,0,0,0,0,0,-5.3164,-5.3178,-5.3302,-5.3303,-5.3305,-5.3383,-5.3369,-5.3479,-5.339,-5.3357,-5.3382,-5.3378,-5.3457,-5.3467,-5.3494,-5.3614,-5.3619,-5.3524,-5.3529,-5.3532,-5.3534,0,0,0,0,0,0,0,-5.3156,-5.3173,-5.3344,-5.3303,-5.3306,-5.3298,-5.331,-5.339,-5.3423,-5.3359,-5.3358,-5.3372,-5.3457,-5.3487,-5.3496,-5.3621,-5.3524,-5.3531,-5.3535,-5.3538,-5.3836,-5.3839,0,0,0,0,0,0,-5.3148,-5.3167,-5.334,-5.3347,-5.3225,-5.3305,-5.3318,-5.3361,-5.3422,-5.3429,-5.3374,-5.337,-5.3476,-5.3488,-5.35,-5.3631,-5.3532,-5.3539,-5.3543,-5.3833,-5.3837,-5.3841,0,0,0,0,0,0,-5.3143,-5.3164,-5.3336,-5.3257,-5.3278,-5.3313,-5.3361,-5.3365,-5.3394,-5.3433,-5.3439,-5.3399,-5.3474,-5.349,-5.3583,-5.3635,-5.3542,-5.3549,-5.3828,-5.3834,-5.3839,-5.3894,0,0,0,0,0,0,-5.3136,-5.3162,-5.3204,-5.3258,-5.3283,-5.3418,-5.3364,-5.3369,-5.3408,-5.3403,-5.3458,-5.3464,-5.3473,-5.3572,-5.359,-5.3643,-5.3554,-5.3824,-5.3831,-5.3837,-5.3888,-5.3901,-5.3912,0,0,0,0,0,-5.3128,-5.3214,-5.3206,-5.3227,-5.3336,-5.3421,-5.3435,-5.3445,-5.3412,-5.3454,-5.3479,-5.3462,-5.3626,-5.3582,-5.3602,-5.3658,-5.3821,-5.3829,-5.3837,-5.3882,-5.3898,-5.3911,0,0,0,0,0,0,-5.3163,-5.3221,-5.3213,-5.3319,-5.3366,-5.3417,-5.347,-5.3461,-5.3517,-5.351,-5.3519,-5.3531,-5.3627,-5.3651,-5.3601,-5.3766,-5.3718,-5.3731,-5.3746,-5.3762,-5.3773,-5.3765,-5.356,0,0,0,0,0,-5.3183,-5.3249,-5.3295,-5.3385,-5.3408,-5.3436,-5.3473,-5.3477,-5.3524,-5.3543,-5.3575,-5.3621,-5.3683,-5.3724,-5.3783,-5.3891,-5.3903,-5.3939,-5.3951,-5.3961,-5.3972,-5.4032,-5.4049,-5.3867,-5.3867,-5.3867,0,0,-5.3225,-5.3265,-5.3306,-5.3393,-5.3429,-5.3496,-5.3452,-5.3524,-5.3573,-5.3554,-5.3644,-5.367,-5.3721,-5.3823,-5.3869,-5.3846,-5.4025,-5.3971,-5.3979,-5.3984,-5.4042,-5.4059,-5.4074,-5.3872,-5.3871,-5.3871,0,0,-5.3337,-5.3373,-5.3453,-5.349,-5.3547,-5.3565,-5.3584,-5.3636,-5.3653,-5.3744,-5.3732,-5.379,-5.3896,-5.3934,-5.3967,-5.4094,-5.4081,-5.4113,-5.4175,-5.4234,-5.4248,-5.4261,-5.4307,-5.4323,-5.4123,-5.4124,-5.4124,0,-5.3382,-5.3483,-5.3494,-5.3568,-5.3607,-5.3594,-5.3674,-5.371,-5.3782,-5.3809,-5.3782,-5.3917,-5.3951,-5.4061,-5.4093,-5.412,-5.4142,-5.4107,-5.4246,-5.4258,-5.427,-5.4314,-5.4332,-5.4127,-5.4127,-5.4126,-5.4126,0,-5.3536,-5.3606,-5.3663,-5.3736,-5.3781,-5.3857,-5.3879,-5.3923,-5.3923,-5.3944,-5.4037,-5.4077,-5.4145,-5.4172,-5.4172,-5.4283,-5.4267,-5.4243,-5.4196,-5.4291,-5.4333,-5.435,-5.4132,-5.4131,-5.413,-5.4129,0,0,-5.3671,-5.375,-5.3771,-5.3804,-5.3866,-5.392,-5.3996,-5.4064,-5.4102,-5.4152,-5.4216,-5.4307,-5.4286,-5.4324,-5.4328,-5.438,-5.4479,-5.435,-5.4351,-5.4373,-5.4605,-5.4623,-5.4642,-5.4471,-5.4474,-5.4476,-5.4601,0,-5.3789,-5.3925,-5.3937,-5.4058,-5.4124,-5.4114,-5.418,-5.4224,-5.4246,-5.4303,-5.4326,-5.4391,-5.4358,-5.4381,-5.4431,-5.4456,-5.4526,-5.4447,-5.4529,-5.4532,-5.4517,-5.4664,-5.4683,-5.4798,-5.4617,-5.4619,-5.4621,0,-5.3944,-5.4001,-5.413,-5.4184,-5.4212,-5.4271,-5.4335,-5.4391,-5.4441,-5.4453,-5.4496,-5.4494,-5.4571,-5.4521,-5.4628,-5.4575,-5.4609,-5.4627,-5.4631,-5.4639,-5.4583,-5.4676,-5.4835,-5.4852,-5.4647,-5.4645,-5.4643,0,-5.4031,-5.414,-5.4231,-5.426,-5.4325,-5.4367,-5.4396,-5.4444,-5.4484,-5.454,-5.4566,-5.4629,-5.4663,-5.4712,-5.4727,-5.4689,-5.4833,-5.4784,-5.4845,-5.4845,-5.4876,-5.4874,-5.5043,-5.4897,-5.4897,-5.4897,-5.4896,0,-5.4161,-5.424,-5.4272,-5.4328,-5.4416,-5.443,-5.4516,-5.4543,-5.4585,-5.4646,-5.464,-5.4696,-5.4712,-5.4772,-5.4784,-5.4871,-5.4886,-5.4897,-5.49,-5.4898,-5.4897,-5.4921,-5.4913,-5.4901,-5.49,-5.4899,-5.4899,0,-5.4273,-5.4297,-5.4396,-5.4451,-5.4466,-5.4529,-5.4575,-5.4629,-5.465,-5.4727,-5.4745,-5.4777,-5.4847,-5.4867,-5.4949,-5.4957,-5.506,-5.5055,-5.5044,-5.5044,-5.5104,-5.5098,-5.5294,-5.5321,-5.5158,-5.5159,-5.5161,0,-5.4354,-5.4416,-5.4477,-5.4518,-5.455,-5.4616,-5.4658,-5.4673,-5.4717,-5.478,-5.4826,-5.4896,-5.4952,-5.5064,-5.5093,-5.5157,-5.5153,-5.5218,-5.5163,-5.516,-5.5155,-5.5152,-5.5158,-5.5228,-5.523,-5.5231,-5.5232,0,-5.4497,-5.4506,-5.4568,-5.4635,-5.4685,-5.4738,-5.4788,-5.4822,-5.4844,-5.4894,-5.4966,-5.501,-5.5096,-5.5165,-5.523,-5.5258,-5.5249,-5.525,-5.5267,-5.5267,-5.5258,-5.5264,-5.5073,-5.5245,-5.5244,-5.5243,-5.5242,-5.5242,-5.4597,-5.4651,-5.4704,-5.4773,-5.4813,-5.486,-5.4914,-5.4943,-5.5004,-5.5076,-5.5081,-5.516,-5.5209,-5.5296,-5.5328,-5.5389,-5.537,-5.5395,-5.5401,-5.5407,-5.5413,-5.5249,-5.54,-5.54,-5.54,-5.5399,-5.5399,0,-5.474,-5.4773,-5.4837,-5.4909,-5.4963,-5.4952,-5.5007,-5.5053,-5.5123,-5.5171,-5.5227,-5.5311,-5.5378,-5.5414,-5.548,-5.5522,-5.552,-5.5539,-5.5536,-5.5543,-5.5426,-5.5404,-5.554,-5.554,-5.554,-5.554,-5.554,-5.554,-5.482,-5.4912,-5.4928,-5.504,-5.5072,-5.5151,-5.5184,-5.5227,-5.5266,-5.536,-5.5417,-5.544,-5.5483,-5.5553,-5.5614,-5.5623,-5.5648,-5.567,-5.5676,-5.5566,-5.5551,-5.5538,-5.5518,-5.5675,-5.5675,-5.5788,-5.5789,-5.579]}]]